Theta_e
299 300 303 308 310 311 313 314 315 315 316 317 315 312 308 302 300 300 299 298 298 297 295 296 295 294 294 295 299 293 295 293 294 296 297 298 296 296 293 295 298 301 303 303 302 304 308 300 303 305 302 300 299 298
297 298 303 307 310 311 312 313 314 314 316 315 315 311 306 302 300 299 299 298 298 298 296 295 295 294 294 294 294 292 294 292 295 296 294 295 296 293 293 297 293 298 300 304 303 306 300 299 299 298 298 298 298 298
295 297 301 307 309 310 312 312 313 314 314 314 314 311 308 304 301 299 299 298 298 297 295 294 294 294 294 293 293 295 292 292 291 291 294 295 295 293 296 295 293 294 295 300 301 302 301 299 297 294 295 296 298 298
294 296 299 305 309 309 310 312 313 314 314 314 314 310 305 303 300 300 299 299 298 297 298 292 292 292 292 292 292 292 292 291 291 290 292 295 295 291 294 293 292 295 294 298 299 299 298 294 293 293 294 295 296 296
295 296 296 304 308 308 308 311 312 312 312 314 313 310 306 304 300 299 299 298 298 298 297 290 290 290 289 289 289 289 290 290 290 290 290 293 291 290 292 290 292 293 294 294 296 296 297 297 293 293 293 293 295 296
295 295 295 302 307 308 308 309 311 313 313 314 310 307 305 302 300 299 298 298 299 298 295 295 288 287 287 287 288 288 288 289 290 290 290 289 288 289 291 293 293 293 292 293 294 292 293 294 293 293 293 293 293 294
293 295 294 300 306 308 308 309 310 312 313 312 308 306 305 301 299 299 300 300 299 298 298 290 289 286 287 287 287 287 288 288 289 290 289 288 288 289 289 291 293 291 291 292 292 292 292 292 293 292 293 293 293 293
294 294 296 300 305 307 308 308 310 311 311 312 307 305 304 300 298 299 299 300 300 298 298 292 289 287 286 287 288 287 288 288 287 289 288 288 288 287 288 290 291 290 290 291 291 292 292 292 292 292 292 292 293 293
294 296 298 301 304 306 308 309 310 312 311 307 305 303 300 298 298 300 298 298 298 298 296 292 294 293 286 288 288 287 288 288 286 287 288 285 289 288 290 290 292 293 292 292 292 291 292 292 292 292 292 292 292 293
294 298 299 301 304 306 308 308 310 310 307 303 302 298 298 298 299 297 295 296 297 297 295 295 288 289 288 288 288 288 288 289 289 287 283 285 289 289 291 293 293 293 294 292 292 291 291 291 292 292 292 292 293 294
293 297 302 303 305 307 308 308 308 305 301 301 299 297 297 297 297 296 294 297 297 295 294 290 289 286 287 290 290 288 288 286 289 287 286 291 289 291 294 296 294 293 293 293 292 293 292 292 292 292 292 293 295 297
293 294 300 305 304 307 308 309 304 301 300 301 299 294 295 297 298 298 296 287 291 297 288 287 287 288 286 287 287 285 286 282 291 277 285 293 295 294 295 296 296 295 293 293 292 291 291 291 292 292 292 295 296 296
292 294 298 304 305 307 307 305 303 301 300 298 297 296 298 293 300 299 295 293 294 286 284 285 287 286 286 286 283 285 287 288 275 284 292 296 296 294 295 296 296 295 294 293 292 291 291 291 292 292 294 297 297 297
292 294 297 303 304 305 303 301 300 300 298 299 297 293 300 297 296 299 298 292 289 288 286 289 284 289 285 287 284 291 279 279 287 290 294 298 296 296 296 296 295 295 294 293 292 292 292 291 292 292 294 296 297 296
292 294 298 303 304 303 300 300 301 300 301 299 298 301 297 293 290 294 292 287 286 288 289 288 287 288 285 283 283 281 281 289 292 298 300 296 297 297 297 297 296 295 295 294 293 293 292 292 292 292 295 296 295 293
292 295 299 302 302 301 301 300 299 302 302 300 297 294 289 292 284 285 288 286 287 288 292 292 288 291 290 287 286 290 294 295 299 295 295 295 297 298 298 297 296 295 294 294 293 293 292 292 292 292 295 295 293 292
291 294 300 300 300 300 299 299 300 301 300 294 292 290 292 293 291 288 288 287 289 291 295 291 292 294 281 289 290 294 295 301 295 293 294 295 297 297 297 296 296 295 294 294 293 293 292 292 292 293 295 294 293 292
292 296 300 300 300 298 298 299 299 298 292 287 290 288 290 292 290 289 290 289 290 294 290 295 283 286 291 293 296 295 290 292 293 293 294 295 296 296 296 297 296 295 294 293 293 292 292 292 293 294 295 294 293 293
293 298 299 299 298 298 298 298 297 287 284 284 285 287 288 289 290 291 290 289 292 293 291 288 292 295 295 293 297 294 293 293 293 292 293 295 296 296 296 295 295 294 294 293 293 293 293 293 294 295 295 294 294 294
295 297 298 298 298 299 296 293 294 290 289 285 286 285 285 286 287 289 289 289 291 290 289 291 296 296 295 295 296 295 295 295 296 294 293 294 295 295 295 295 295 294 294 293 293 293 293 293 294 294 294 294 294 294
293 297 298 297 298 298 292 290 287 286 285 285 285 286 285 286 286 286 287 288 289 290 294 293 295 295 295 296 296 295 295 295 296 297 297 295 295 296 295 294 294 294 294 294 293 293 293 293 293 293 293 293 293 293
294 296 295 296 296 292 289 289 289 287 285 286 288 288 288 289 287 288 288 288 290 295 294 295 295 295 296 297 297 297 296 295 296 296 296 296 296 296 296 295 295 294 294 294 294 294 293 293 293 294 293 293 293 293
294 295 295 295 291 289 286 286 288 288 291 286 288 289 288 289 288 287 289 291 293 294 294 296 295 295 296 297 297 297 296 296 297 297 296 296 297 297 297 296 296 295 294 294 293 293 293 293 293 293 293 293 293 293
295 296 292 290 289 287 287 288 288 287 288 290 288 287 288 286 286 287 292 290 293 294 294 295 295 296 296 297 297 297 296 296 296 297 296 296 297 296 296 296 296 296 295 294 293 293 292 293 293 293 293 293 293 294
294 290 290 287 287 288 289 290 289 290 288 287 287 285 285 285 289 289 291 291 292 293 294 295 294 295 296 296 296 296 296 296 297 297 296 296 297 296 296 295 295 295 294 294 293 293 293 293 293 293 293 293 293 293
288 285 290 291 289 292 289 290 288 287 287 286 284 282 283 289 292 294 291 292 293 293 294 295 295 294 294 295 296 296 296 296 296 296 297 297 297 298 298 297 297 297 296 295 294 294 293 293 294 294 294 293 293 293
288 286 283 285 288 287 287 288 288 292 292 288 283 282 287 295 296 294 288 288 292 293 294 294 295 295 295 295 296 296 296 295 295 296 296 296 296 296 296 296 296 297 296 296 295 294 294 294 294 294 294 294 293 292
273 274 287 281 284 286 290 292 295 296 292 285 286 290 298 299 296 281 283 286 289 290 293 293 293 293 294 295 295 295 295 295 295 295 295 295 295 295 295 295 295 296 296 295 295 295 294 294 294 294 294 294 293 293
271 272 274 279 279 277 275 285 287 281 283 287 293 292 281 275 276 278 280 284 285 287 288 289 291 292 292 293 294 294 294 295 295 295 294 295 295 295 295 295 295 295 295 295 295 294 294 293 293 293 293 293 293 292
269 270 276 276 278 279 270 271 274 277 281 283 282 279 276 273 273 276 279 282 285 285 286 288 289 289 291 292 293 293 293 293 294 294 295 294 294 295 295 296 295 294 294 294 294 294 293 293 292 292 292 291 291 290
268 271 273 272 271 270 271 275 277 280 281 280 280 280 274 276 277 278 280 281 282 284 286 287 288 289 290 291 291 291 292 293 293 293 294 294 294 294 295 295 294 293 293 293 293 292 292 292 292 292 292 291 291 290
271 269 275 277 275 274 275 277 279 280 281 280 278 279 278 278 275 276 277 278 280 282 285 286 287 288 289 289 290 290 292 292 293 293 293 293 293 293 293 293 292 293 292 292 292 291 290 290 290 290 290 290 289 288
273 273 274 275 276 276 278 278 281 281 280 277 275 275 275 277 273 274 275 278 280 282 284 285 286 286 287 288 289 289 291 291 292 293 292 292 292 292 292 292 291 291 291 290 290 289 289 289 288 288 288 287 286 286
Wind_Speed
33 32 38 40 41 41 40 40 41 41 44 47 43 53 55 55 51 48 38 29 23 9 12 14 10 7 6 5 3 6 3 2 1 3 2 1 3 0 3 4 2 3 2 3 2 2 3 13 7 5 4 14 13 15
35 29 36 40 40 39 40 41 39 37 40 44 50 52 56 56 52 47 34 31 26 13 9 15 12 10 10 6 5 8 2 3 2 1 2 1 3 2 2 4 3 3 2 1 4 2 2 5 2 7 8 11 10 15
31 28 38 39 41 38 37 40 39 37 39 48 44 52 54 55 54 50 35 33 25 12 5 8 8 12 11 11 10 4 4 5 3 4 1 1 5 1 3 5 3 6 6 4 2 2 2 4 10 7 7 8 10 10
34 32 32 42 38 39 39 37 39 40 39 40 47 50 57 55 53 52 39 36 27 11 5 4 9 7 9 10 10 12 8 6 4 1 2 2 3 2 3 4 4 4 7 4 5 10 9 3 2 4 6 7 7 4
32 34 34 48 36 40 39 40 38 39 39 41 50 56 57 56 52 49 35 34 28 13 6 5 6 7 5 4 5 7 5 4 3 2 2 2 3 3 3 4 7 10 6 7 5 3 1 2 1 2 5 9 11 9
26 30 36 48 43 40 40 39 39 39 37 39 56 57 58 57 53 43 16 31 32 19 4 3 4 5 4 4 4 5 6 6 4 2 3 4 3 2 3 4 9 16 13 14 2 5 5 3 3 3 3 5 7 8
32 27 36 46 46 41 41 39 40 39 40 48 57 60 64 57 53 36 11 17 36 21 4 5 4 4 8 6 5 4 4 2 4 2 3 3 3 4 3 4 7 8 16 16 13 12 8 8 6 4 3 5 7 6
29 27 33 42 47 42 40 39 42 40 42 49 62 65 60 55 44 22 8 23 36 21 5 3 3 5 11 5 4 5 4 4 4 1 2 4 2 5 6 19 19 8 7 12 17 15 12 6 4 6 7 6 6 4
27 28 33 41 47 44 40 40 42 41 44 60 66 65 54 45 25 21 8 32 29 10 7 7 6 4 12 5 4 4 4 3 2 3 3 2 4 7 13 14 14 19 11 4 7 15 15 14 12 11 8 5 6 3
28 25 32 41 45 45 39 38 41 47 62 74 72 35 16 24 28 26 16 9 9 8 5 3 8 4 9 7 5 6 3 1 2 2 1 4 5 28 26 18 9 9 14 13 8 7 10 10 9 8 10 6 6 8
24 26 27 40 41 42 37 38 51 72 80 59 17 9 35 42 24 5 7 6 9 3 9 10 8 7 11 4 4 4 3 2 2 2 2 3 4 7 6 17 23 12 13 12 12 9 7 7 8 9 9 8 8 9
24 25 28 35 43 42 37 50 80 80 46 43 32 49 34 13 5 5 5 2 6 7 11 11 9 9 9 6 5 5 3 1 3 3 2 4 5 12 9 9 14 22 19 16 13 11 8 5 12 13 11 10 11 12
24 24 30 36 48 40 50 81 78 64 55 54 34 9 13 5 7 11 11 6 6 11 13 14 7 9 7 6 6 3 5 3 3 2 4 5 6 11 16 15 13 13 14 14 14 13 11 10 14 13 12 12 12 14
24 24 27 37 43 37 85 75 73 69 60 10 8 7 6 7 8 6 4 7 8 14 33 29 13 6 6 4 4 5 2 2 3 3 7 3 16 19 20 16 14 13 13 12 13 16 12 13 15 12 13 13 16 19
23 25 30 41 37 74 84 72 76 70 19 7 9 8 9 4 5 14 23 20 16 39 41 19 10 5 3 4 1 5 3 5 6 5 3 7 18 24 23 19 16 15 14 13 14 17 14 13 16 14 16 17 19 19
22 23 36 42 34 84 89 76 67 37 14 11 8 5 4 9 4 10 16 20 34 38 33 10 5 4 3 4 5 9 6 7 4 4 8 11 24 26 23 19 16 15 14 15 15 14 13 15 17 15 18 19 19 18
21 15 44 28 63 85 81 67 37 10 10 7 3 9 8 12 17 20 22 25 46 40 7 6 6 5 5 3 4 5 6 3 5 8 8 16 25 25 22 19 18 18 20 20 17 16 17 19 19 18 20 21 20 18
18 24 34 34 87 75 55 31 11 7 4 3 3 11 13 11 24 27 24 47 38 24 14 5 12 6 6 7 4 4 18 10 7 9 10 18 22 21 18 17 18 20 22 20 18 18 19 20 20 21 21 22 21 18
21 22 41 87 81 49 11 16 2 5 4 6 14 15 9 10 18 31 38 46 32 18 15 9 3 4 4 7 7 9 15 18 13 13 18 24 25 22 19 18 19 21 23 20 20 19 19 19 19 20 21 21 20 19
26 35 79 80 64 20 7 6 6 8 4 5 10 9 9 10 16 26 39 34 29 12 5 4 4 4 7 7 9 7 16 20 18 19 20 22 23 21 19 20 23 23 23 22 21 20 21 22 22 22 22 21 20 19
18 55 75 58 31 10 8 7 7 6 10 8 16 7 8 15 13 14 21 25 10 6 3 7 8 9 8 9 10 8 14 19 18 15 27 28 26 22 21 22 22 22 24 25 25 25 24 24 24 25 24 23 21 18
20 51 37 32 7 6 8 6 14 12 6 10 8 8 8 4 6 10 16 12 7 14 8 9 12 15 14 13 10 10 16 16 15 10 17 23 27 26 24 24 25 24 24 23 24 25 27 28 28 28 27 25 23 21
37 36 28 9 7 5 7 6 5 5 5 4 6 5 3 4 7 17 6 11 12 22 17 14 16 17 15 13 12 12 15 15 15 12 17 21 21 20 19 21 22 21 22 23 23 23 26 27 28 28 28 27 25 22
39 18 5 5 6 4 8 3 6 7 6 3 3 5 4 4 12 1 4 6 16 20 28 19 21 22 19 18 16 15 16 17 16 14 18 20 20 19 17 17 17 16 18 19 22 23 25 28 28 29 28 27 26 24
9 3 6 5 6 6 4 4 3 3 4 3 4 3 4 7 3 3 4 6 21 28 31 30 25 26 26 24 20 16 14 15 13 14 19 19 20 20 19 19 17 15 17 20 23 25 29 30 30 31 30 30 29 27
6 2 2 4 5 4 6 6 5 5 5 4 3 6 5 4 5 6 4 10 16 33 36 41 35 33 30 23 19 17 16 16 15 14 16 19 19 17 14 13 13 15 19 21 23 26 28 31 32 32 33 33 31 31
5 3 3 5 9 12 6 6 7 4 5 5 6 7 5 5 7 3 4 12 17 30 38 42 44 38 32 27 23 17 17 17 17 19 18 18 18 15 13 9 9 11 12 18 22 25 27 28 30 32 34 36 35 32
4 4 5 3 5 2 6 4 4 4 4 9 12 6 10 8 4 3 4 11 15 20 32 38 39 39 38 34 29 24 19 18 17 17 20 20 19 21 18 14 11 12 13 15 17 22 26 27 29 31 31 32 33 33
4 4 2 4 4 7 5 2 3 3 9 14 3 3 4 3 2 4 5 9 12 15 23 29 32 33 31 31 27 25 25 22 22 24 23 21 21 20 19 17 17 17 17 19 20 21 25 28 30 30 30 31 30 30
6 8 3 4 4 3 3 2 4 11 11 10 8 8 6 6 8 7 6 8 11 13 17 23 26 26 25 26 27 25 24 25 24 22 22 21 19 19 18 18 19 19 19 20 21 22 24 26 30 32 33 34 34 33
5 4 5 7 4 5 6 15 16 16 9 8 10 8 9 7 8 8 6 6 9 11 15 17 19 21 23 24 24 24 23 23 23 24 24 23 20 19 19 19 19 20 19 19 20 21 22 24 26 28 30 31 31 31
5 5 2 4 3 8 8 3 4 5 4 4 4 5 7 6 4 3 4 6 8 10 13 14 16 16 19 21 22 22 22 22 22 21 21 21 21 20 19 19 18 18 18 19 19 18 19 20 22 22 23 25 26 26
3 4 6 8 5 3 2 4 3 5 6 4 5 4 4 5 5 4 5 6 6 8 10 12 13 13 15 16 18 19 19 18 18 20 20 19 17 16 16 16 15 15 15 16 16 17 17 18 19 19 19 19 19 19
Wind_Direction
223 225 221 213 217 220 220 220 220 219 230 228 222 218 204 193 196 194 194 201 200 200 181 190 184 156 176 181 188 165 145 184 149 222 241 230 252 101 276 263 216 238 231 239 257 272 307 356 9 45 279 292 317 348
229 236 216 212 213 214 217 218 217 218 225 217 218 212 197 195 192 190 188 196 198 196 185 198 202 205 206 187 181 176 187 158 201 217 231 307 252 223 308 284 158 249 246 300 239 313 126 1 21 303 289 286 317 334
228 233 214 207 209 210 212 212 212 214 219 225 221 211 200 194 190 189 185 189 187 179 140 177 206 217 223 219 212 208 205 202 171 180 221 320 258 174 240 238 282 213 207 231 286 91 184 247 310 308 318 303 304 325
226 228 224 205 204 208 210 210 211 208 210 220 218 209 194 192 186 190 184 191 188 171 154 180 212 215 224 228 227 226 236 202 191 157 233 258 259 191 264 305 248 256 168 212 252 278 281 247 307 341 3 359 350 336
217 224 228 206 200 206 208 208 208 209 207 211 217 203 192 192 186 186 182 191 191 190 139 124 172 214 231 221 208 206 177 157 133 175 219 240 275 286 244 283 245 198 193 197 229 155 208 162 195 12 31 31 24 20
224 228 224 208 200 202 204 205 205 205 204 211 210 192 190 189 186 173 177 204 198 197 130 124 177 164 176 165 158 168 160 165 158 208 242 258 267 270 286 263 257 213 220 210 173 224 209 211 267 287 305 2 360 11
223 232 220 208 201 200 202 202 202 203 208 208 202 192 189 183 179 168 177 185 190 186 177 108 157 175 168 171 172 179 170 170 176 205 237 253 248 226 257 254 262 247 234 229 232 244 268 241 230 231 278 336 348 356
222 222 212 205 202 199 201 200 198 201 203 206 189 184 183 174 170 174 159 166 177 172 184 132 110 150 171 178 162 172 155 174 194 264 230 239 221 228 252 242 248 255 244 237 231 226 231 246 264 286 288 313 329 331
218 208 208 202 202 199 200 199 197 200 202 178 169 165 160 164 166 169 161 159 167 165 181 181 162 161 164 158 136 159 167 185 203 226 211 204 207 231 227 241 243 233 223 215 226 231 240 254 277 279 260 284 290 243
212 197 200 200 196 197 196 196 191 199 171 155 155 138 144 163 154 130 131 149 168 222 222 171 125 124 164 165 161 139 157 219 232 179 154 228 257 255 250 238 226 214 219 229 221 216 227 236 247 233 228 242 204 178
214 192 177 196 192 190 187 185 180 158 154 148 135 121 136 139 127 127 133 166 192 225 204 168 154 136 171 164 146 185 153 151 243 138 232 240 268 243 236 217 216 209 198 204 212 226 246 244 223 204 189 184 174 160
209 202 178 171 189 184 178 179 163 156 157 158 148 130 123 128 146 157 172 163 205 205 167 148 140 137 147 155 127 151 133 170 240 134 233 255 247 225 183 177 196 209 214 215 225 231 223 204 172 168 166 158 156 157
200 199 185 167 179 182 171 169 162 158 150 130 123 126 145 166 172 190 185 202 187 162 160 151 122 132 131 158 95 132 161 211 128 203 237 238 266 198 176 175 175 182 196 207 209 203 185 170 165 162 157 157 156 154
197 195 189 173 183 166 165 159 161 151 132 127 135 142 179 182 221 191 138 140 161 159 149 142 114 135 133 139 147 127 78 201 219 236 234 236 217 187 181 184 189 187 188 191 189 182 173 167 165 159 160 158 158 157
191 193 185 179 171 167 161 163 163 154 143 121 140 192 201 159 125 156 153 133 140 151 143 125 91 130 129 116 60 112 126 239 220 229 230 228 181 179 180 186 190 192 194 195 188 186 185 177 174 168 164 161 160 160
189 186 187 177 171 167 170 165 157 162 145 149 184 128 134 130 120 149 144 132 148 147 142 125 128 142 143 129 149 211 179 222 234 218 231 189 175 178 180 183 186 187 187 182 178 182 187 184 177 174 169 164 165 166
184 191 180 170 169 169 160 155 158 158 178 166 164 173 155 136 164 168 164 160 153 150 156 142 148 174 119 154 223 194 211 225 231 210 197 184 179 176 178 181 184 183 180 177 179 177 173 172 175 176 175 170 170 172
193 190 181 173 167 156 157 165 141 136 126 123 166 155 169 154 155 156 168 157 160 171 156 182 132 172 177 180 225 217 226 221 206 186 179 176 174 175 181 186 186 182 178 176 176 177 176 176 176 176 178 178 180 184
189 186 169 164 154 153 142 172 104 100 93 118 124 133 131 138 163 174 169 162 171 165 149 152 149 175 201 212 218 218 204 192 189 178 171 170 174 179 184 184 185 180 177 179 179 179 178 178 178 179 180 183 187 187
176 162 160 158 157 146 111 103 115 99 115 132 113 105 107 114 130 159 159 170 170 162 172 173 216 205 200 186 191 216 196 185 175 163 172 175 177 177 180 183 179 177 178 180 181 181 181 180 181 182 184 186 187 188
154 159 160 156 156 110 104 123 84 102 116 95 119 85 86 116 110 148 165 173 185 210 222 206 198 177 167 154 170 176 182 184 185 192 186 179 178 179 179 178 182 186 188 187 187 186 187 189 187 184 184 185 189 192
161 159 156 162 125 84 85 85 118 111 82 118 102 95 104 96 104 151 167 201 240 212 207 176 178 172 156 151 151 154 163 173 182 195 193 191 180 180 183 188 190 193 196 199 199 198 192 189 189 189 189 191 194 198
153 155 153 135 92 72 113 101 90 87 112 141 131 101 78 113 150 147 199 223 228 214 207 189 185 173 168 175 175 174 170 173 172 167 180 189 193 191 191 194 195 199 204 205 205 205 201 199 197 198 198 200 204 208
153 143 112 96 91 101 137 97 97 102 113 119 88 107 116 123 156 199 248 225 213 199 196 195 185 172 165 161 166 174 172 168 173 175 180 183 187 189 189 192 195 203 212 215 214 208 206 207 208 208 210 213 217 218
115 116 111 93 122 121 108 124 113 100 108 124 105 121 144 142 166 227 227 234 203 196 192 193 187 182 173 164 158 157 164 174 178 171 179 184 186 182 184 189 198 205 212 215 214 212 212 211 213 217 220 223 225 227
87 88 131 126 142 135 162 134 148 130 119 102 93 128 153 157 187 239 211 196 197 195 191 195 194 192 198 197 197 201 204 197 191 188 192 191 189 192 192 199 210 219 224 220 218 219 218 218 220 222 226 229 231 233
117 120 79 94 123 127 107 85 128 116 114 138 156 163 168 171 215 228 211 182 178 188 194 199 204 205 205 206 208 206 204 200 205 208 206 209 209 203 205 228 234 235 230 229 229 225 223 223 226 229 232 234 237 239
66 34 128 135 104 110 116 104 130 134 142 146 139 169 177 195 199 195 180 178 185 186 193 201 205 208 211 215 216 216 213 205 201 205 208 211 212 210 211 218 226 231 231 228 231 233 231 231 232 233 236 242 245 246
54 20 61 59 73 52 53 71 119 116 127 167 126 127 122 93 97 136 132 179 184 187 192 193 197 203 208 211 212 214 210 209 207 207 210 212 214 218 227 236 241 236 235 237 237 236 232 234 239 239 239 241 246 248
16 17 53 54 58 70 16 69 109 127 130 128 110 109 92 85 67 88 98 142 172 180 183 187 188 193 196 200 206 206 203 203 208 213 220 225 230 233 237 239 244 244 241 243 246 245 243 236 232 234 237 240 242 243
358 23 72 53 66 25 96 110 111 107 93 83 85 103 113 117 83 72 86 122 142 161 173 174 183 191 194 199 204 207 203 204 208 215 219 225 231 233 237 241 240 240 243 245 247 248 248 246 243 241 242 246 250 251
19 42 88 102 97 136 117 96 85 80 84 78 72 95 109 98 82 106 95 118 139 150 156 165 173 182 193 200 204 208 211 213 215 219 224 230 235 240 243 245 246 245 245 245 245 242 241 244 248 248 251 254 256 255
58 46 78 108 116 174 130 117 110 102 64 76 60 76 87 102 117 109 108 117 133 137 146 157 167 178 186 191 198 202 205 209 214 221 226 231 236 241 243 243 244 242 238 237 235 237 242 245 248 252 253 252 249 246